Regional Weather Roundup
Issued by NWS Sioux Falls, SD

Home | Current Version | Previous Version | Graphics & Text | Print | Product List | Glossary Off
Versions: 1 2 3 4 5 6 7 8 9 10 11 12 13 14 15 16 17 18 19 20 21 22 23 24 25 26 27 28 29 30 31 32 33 34 35 36 37 38 39 40 41 42 43 44 45 46 47 48 49 50

000
ASUS43 KFSD 280902
RWRFSD

WEATHER ROUNDUP FOR SE SOUTH DAKOTA/SW MINNESOTA/NW IOWA
NATIONAL WEATHER SERVICE SIOUX FALLS SD
400 AM CDT FRI APR 28 2017

NOTE: "FAIR" INDICATES FEW OR NO CLOUDS BELOW 12,000 FEET WITH NO
SIGNIFICANT WEATHER AND OR OBSTRUCTIONS TO VISIBILITY.


SDZ038>040-050-052>070-281000-
SOUTHEAST SOUTH DAKOTA

CITY           SKY/WX    TMP DP  RH WIND       PRES   REMARKS
BROOKINGS      CLEAR     25  24  96 NE3       29.85S
CHAMBERLAIN    PTCLDY    33  30  89 NE3       29.81S
HURON          CLEAR     26  24  92 NE6       29.85S WCI  19
MADISON        FAIR      27  27 100 CALM      29.83F
MITCHELL       CLOUDY    31  27  85 S3        29.83F
SIOUX FALLS    CLEAR     28  27  96 N3        29.83F
WINNER         CLOUDY    38  30  73 SE12      29.79R
YANKTON        CLEAR     34  27  75 E5        29.83S WCI  30
$$

MNZ071-072-080-081-089-090-097-098-281000-
SOUTHWEST MINNESOTA

CITY           SKY/WX    TMP DP  RH WIND       PRES   REMARKS
FAIRMONT       CLEAR     28  27  96 SW7       29.86R WCI  21
JACKSON        CLEAR     28  27  93 S6        29.86R WCI  22
LUVERNE        CLEAR     28  27  93 NE3       29.85S
MARSHALL       MOCLDY    32  28  85 W8        29.86R WCI  25
MONTEVIDEO     CLEAR     32  28  86 NW5       29.85S WCI  27
PIPESTONE      CLEAR     28  25  86 NE3       29.83S
REDWOOD FALLS  CLEAR     34  27  75 W7        29.84S WCI  28
TRACY          CLEAR     31  28  90 SW7       29.86R WCI  24
WINDOM         CLEAR     27  27 100 CALM      29.85S
WORTHINGTON    CLEAR     28  26  92 CALM      29.85S
$$

IAZ001>003-012>014-020>022-031-032-NEZ013-014-SDZ071-281000-
NORTHWEST IOWA

CITY           SKY/WX    TMP DP  RH WIND       PRES   REMARKS
CHEROKEE       CLEAR     31  28  91 NE3       29.84F
DENISON        CLOUDY    34  30  86 E10G17    29.85R WCI  26
ESTHERVILLE    CLEAR     26  25  96 CALM      29.85S
LE MARS        CLEAR     32  28  86 NE7       29.84F WCI  26
ORANGE CITY    CLEAR     32  30  93 NE7       29.83F WCI  26
SHELDON        CLEAR     28  27  93 E5        29.83S WCI  23
SIOUX CITY     CLOUDY    34  30  85 NE8       29.84R WCI  27
SPENCER        CLEAR     26  23  88 CALM      29.85F
STORM LAKE     CLOUDY    30  27  86 E9        29.84S WCI  22
$$

ABBREVIATIONS USED IN REMARKS
   TC - TEMPERATURE IN CELSIUS
  WCI - WIND CHILL INDEX
   HX - HEAT INDEX
  VSB - VISIBILITY





USA.gov is the U.S. government's official web portal to all federal, state and local government web resources and services.